PBO Station Position Time Series. Reference Frame : NAM14
Format Version,1.1.1
4-character ID,ALBH
Station name,Albert_Head
Begin Date, 1996-01-01
End Date, 2023-06-26
Release Date, 2023-06-27
Reference position, 48.3897807297 North Latitude, -123.4874712207 East Longitude, 31.75342 meters elevation,
Date, North (mm), East (mm), Vertical (mm), North Std. Deviation (mm), East Std. Deviation (mm),              Vertical Std. Deviation (mm), Quality,
1996-01-01,0.00, 0.00, 0.00, 2.57, 1.82, 8.55, repro,
1996-01-02,-1.66, -0.81, 3.06, 2.65, 1.86, 8.62, repro,
1996-01-03,1.60, -3.23, 1.87, 2.52, 1.82, 8.37, repro,
1996-01-04,0.85, -2.26, -0.28, 2.54, 1.81, 8.39, repro,
1996-01-05,-0.76, -1.34, -0.74, 2.78, 1.96, 9.11, repro,
1996-01-06,-3.98, -0.91, 8.62, 2.58, 1.83, 8.58, repro,
1996-01-07,-0.59, -4.26, 3.35, 2.74, 1.94, 8.96, repro,
1996-01-08,-1.64, -3.48, -2.22, 2.72, 2.05, 9.51, repro,
1996-01-09,0.27, -2.65, -2.70, 2.58, 1.82, 8.57, repro,
1996-01-10,0.98, -2.63, -3.40, 2.64, 1.87, 8.69, repro,
1996-01-11,-0.56, -1.83, 3.93, 2.62, 1.89, 8.84, repro,
1996-01-12,0.54, -1.42, 1.65, 2.44, 1.77, 8.32, repro,
1996-01-13,0.84, -2.42, 0.90, 2.49, 1.81, 8.45, repro,
1996-01-14,-1.92, -2.15, -4.37, 2.98, 2.16, 9.81, repro,
1996-01-15,-1.76, -3.49, -7.96, 2.60, 1.89, 8.68, repro,
1996-01-16,-0.55, -5.62, 2.87, 2.94, 2.14, 10.12, repro,
1996-01-17,-1.35, -2.39, 11.76, 2.79, 2.06, 9.62, repro,
1996-01-18,2.71, -3.47, 9.03, 2.70, 2.04, 8.92, repro,
1996-01-19,-2.20, -4.68, 16.25, 3.64, 3.25, 13.67, repro,
1996-01-20,2.52, -0.56, 2.98, 3.82, 2.73, 12.31, repro,
1996-01-21,2.57, -0.07, 10.32, 3.73, 2.63, 11.99, repro,
1996-01-22,1.49, -2.02, 7.04, 3.53, 2.50, 11.91, repro,
1996-01-23,-0.70, -2.22, 4.80, 3.82, 2.64, 12.60, repro,
1996-01-24,0.53, -4.12, -6.27, 3.63, 2.56, 11.94, repro,
1996-01-25,0.07, -3.76, 4.85, 3.82, 2.82, 12.76, repro,
1996-01-26,1.74, -1.25, 3.21, 3.85, 2.80, 12.22, repro,
1996-01-27,3.62, -1.40, -4.14, 4.10, 3.01, 13.43, repro,
1996-01-28,0.86, -2.87, 3.40, 4.33, 3.16, 13.90, repro,
1996-01-29,1.88, -3.30, -4.11, 2.83, 2.11, 9.24, repro,
1996-01-30,-1.37, -1.97, -7.80, 4.26, 3.19, 13.75, repro,
1996-01-31,4.38, -0.99, -0.63, 3.00, 2.17, 9.60, repro,
1996-02-01,2.99, -0.72, -0.21, 2.85, 2.11, 9.51, repro,
1996-02-02,2.61, -1.17, -0.65, 2.92, 2.12, 9.53, repro,
1996-02-03,3.22, -0.32, -1.28, 2.73, 2.04, 9.12, repro,
1996-02-04,0.91, -1.96, -2.80, 2.51, 1.87, 8.54, repro,
1996-02-05,3.09, -2.18, 3.99, 2.62, 1.99, 8.59, repro,
1996-02-06,1.43, -3.53, 5.56, 2.66, 2.00, 8.70, repro,
1996-02-07,-1.12, -3.67, -0.93, 2.69, 1.97, 8.89, repro,
1996-02-08,0.14, -2.28, 6.34, 2.60, 1.89, 8.34, repro,
1996-02-09,4.66, 1.26, 4.06, 4.28, 3.34, 14.20, repro,
1996-02-10,1.00, -1.19, -5.99, 2.59, 1.94, 8.54, repro,
1996-02-11,2.47, 0.01, -4.90, 3.35, 2.60, 11.43, repro,
1996-02-12,4.24, -0.07, -12.35, 3.54, 2.70, 11.67, repro,
1996-02-13,0.46, -0.76, -10.70, 3.47, 2.62, 11.87, repro,
1996-02-14,-0.34, -1.13, -3.71, 3.43, 2.63, 11.71, repro,
1996-02-15,1.54, 0.03, -0.73, 3.51, 2.71, 11.53, repro,
1996-02-16,0.49, -1.38, 5.32, 3.45, 2.61, 11.24, repro,
1996-02-17,2.22, -2.16, -4.65, 3.61, 2.63, 11.61, repro,
1996-02-18,0.69, -1.03, 12.91, 3.51, 2.59, 11.49, repro,
1996-02-19,0.27, -3.08, 15.03, 3.50, 2.61, 11.42, repro,
1996-02-20,2.60, -0.78, 9.59, 3.42, 2.53, 11.16, repro,
1996-02-21,1.77, -3.36, 2.27, 3.49, 2.57, 11.22, repro,
1996-02-22,2.96, -2.66, 1.31, 3.43, 2.55, 11.59, repro,
1996-02-23,1.03, -2.13, -3.88, 3.18, 2.43, 10.94, repro,
1996-02-24,0.88, -2.73, -1.63, 3.18, 2.43, 10.91, repro,
1996-02-25,1.02, -1.44, -2.46, 3.12, 2.38, 11.03, repro,
1996-02-26,3.52, -0.74, 4.48, 3.26, 2.48, 11.05, repro,
1996-02-27,3.33, -1.50, -4.67, 3.21, 2.47, 11.09, repro,
1996-02-28,1.06, 0.24, -4.35, 3.20, 2.48, 11.03, repro,
1996-02-29,1.34, -0.51, 5.42, 3.24, 2.51, 11.19, repro,
1996-03-01,0.87, -0.48, -1.51, 3.20, 2.43, 10.84, repro,
1996-03-02,2.25, -0.22, 6.67, 3.29, 2.49, 11.10, repro,
1996-03-03,2.03, -0.42, 0.85, 3.23, 2.49, 11.04, repro,
1996-03-04,2.49, -1.00, 6.65, 3.22, 2.47, 10.94, repro,
1996-03-05,0.48, -1.54, 0.57, 2.69, 1.96, 9.01, repro,
1996-03-06,1.66, -0.92, -2.99, 2.75, 1.91, 8.98, repro,
1996-03-07,2.24, 0.58, -4.69, 2.75, 1.97, 8.84, repro,
1996-03-08,3.03, 1.27, 0.40, 4.41, 3.15, 13.41, repro,
1996-03-09,-0.59, -0.94, -0.57, 4.04, 3.38, 14.92, repro,
1996-03-10,0.36, -1.85, -8.10, 3.26, 2.48, 11.56, repro,
1996-03-11,1.27, -1.68, -6.29, 2.57, 1.84, 8.54, repro,
1996-03-12,0.00, -1.83, -5.28, 2.57, 1.85, 8.29, repro,
1996-03-13,-0.98, -0.46, -1.25, 2.86, 2.00, 9.42, repro,
1996-03-14,2.69, -1.96, -1.83, 2.82, 2.01, 9.04, repro,
1996-03-15,1.05, -2.76, -8.01, 3.14, 2.28, 10.49, repro,
1996-03-16,-1.39, -1.58, -2.76, 3.19, 2.40, 10.86, repro,
1996-03-17,0.02, -1.12, -2.54, 3.01, 2.18, 9.78, repro,
1996-03-18,-0.16, -0.50, -3.58, 3.21, 2.40, 11.24, repro,
1996-03-19,0.29, -0.37, -11.59, 3.29, 2.49, 11.43, repro,
1996-03-20,-0.34, -1.37, -4.00, 3.10, 2.17, 10.33, repro,
1996-03-21,1.94, -1.35, -1.96, 3.13, 2.24, 10.30, repro,
1996-03-22,0.98, -2.64, -8.10, 3.61, 2.66, 11.79, repro,
1996-03-23,1.04, -1.03, -7.43, 3.85, 2.82, 12.24, repro,
1996-03-24,6.22, -2.46, -5.07, 3.31, 2.51, 11.00, repro,
1996-03-25,1.86, -1.45, -1.87, 3.19, 2.20, 10.01, repro,
1996-03-26,0.71, -1.64, 1.18, 3.17, 2.14, 9.98, repro,
1996-03-27,-0.31, -2.18, 2.75, 2.51, 1.78, 8.00, repro,
1996-03-28,1.45, -1.87, -1.29, 2.47, 1.77, 7.95, repro,
1996-03-29,1.39, -2.29, -2.45, 2.45, 1.77, 7.85, repro,
1996-03-30,1.30, -0.14, -0.76, 2.56, 1.86, 8.21, repro,
1996-03-31,1.23, -0.30, 0.15, 2.49, 1.79, 8.07, repro,
1996-04-01,-0.65, -0.94, 10.33, 2.50, 1.80, 8.06, repro,
1996-04-02,-1.12, -2.39, 2.56, 2.49, 1.79, 7.92, repro,
1996-04-03,0.10, -1.45, 1.46, 2.44, 1.79, 7.86, repro,
1996-04-04,1.50, 0.68, 1.02, 2.48, 1.79, 7.95, repro,
1996-04-05,0.93, -0.35, -1.85, 2.64, 1.92, 8.52, repro,
1996-04-06,1.16, -0.11, 5.69, 2.55, 1.84, 8.09, repro,
1996-04-07,0.91, -1.97, 0.14, 2.67, 1.89, 8.43, repro,
1996-04-08,0.20, -1.69, 3.23, 2.47, 1.78, 7.88, repro,
1996-04-09,0.18, -0.26, 3.45, 2.53, 1.83, 7.99, repro,
1996-04-10,1.85, 0.46, 9.05, 2.59, 1.88, 8.36, repro,
1996-04-11,0.93, -2.01, 7.95, 2.50, 1.80, 7.96, repro,
1996-04-12,-0.81, -2.32, 3.56, 2.73, 1.91, 8.69, repro,
1996-04-13,-0.12, -1.43, -0.44, 2.54, 1.86, 8.15, repro,
1996-04-14,1.90, -0.61, 5.03, 2.49, 1.83, 8.03, repro,
1996-04-15,1.31, 0.10, 6.72, 2.47, 1.76, 7.95, repro,
1996-04-16,0.91, -2.42, 5.58, 2.61, 1.91, 8.32, repro,
1996-04-17,-1.18, -1.00, 7.43, 2.56, 1.88, 8.38, repro,
1996-04-18,0.62, -1.02, 8.05, 2.48, 1.82, 8.32, repro,
1996-04-19,0.08, -2.14, 4.42, 2.51, 1.83, 8.05, repro,
1996-04-20,1.92, -0.58, 4.70, 2.71, 2.01, 8.64, repro,
1996-04-21,1.29, -0.70, 6.64, 2.68, 1.95, 8.57, repro,
1996-04-22,0.38, -1.11, 5.75, 2.77, 1.96, 8.70, repro,
1996-04-23,1.15, -1.17, 1.48, 2.52, 1.81, 8.11, repro,
1996-04-24,0.57, -1.30, 0.99, 2.49, 1.79, 8.03, repro,
1996-04-25,1.69, -0.22, 2.78, 2.52, 1.83, 8.17, repro,
1996-04-26,2.27, -1.98, 0.62, 2.59, 1.90, 8.52, repro,
1996-04-27,1.94, 0.09, 5.37, 2.49, 1.77, 8.00, repro,
1996-04-28,0.94, -1.31, -3.83, 2.67, 1.88, 8.26, repro,
1996-04-29,2.26, -0.84, 1.92, 2.65, 1.85, 8.18, repro,
1996-04-30,2.14, 0.93, -1.92, 2.67, 1.92, 8.40, repro,
1996-05-01,3.44, -0.52, -0.98, 2.61, 1.90, 8.33, repro,
1996-05-02,1.51, -0.29, 6.93, 2.51, 1.80, 8.20, repro,
1996-05-03,1.57, -1.85, -0.01, 2.63, 1.84, 8.36, repro,
1996-05-04,1.58, -1.05, -2.50, 2.53, 1.84, 8.30, repro,
1996-05-05,0.18, 0.46, -2.79, 2.55, 1.79, 8.17, repro,
1996-05-06,3.20, 1.09, 2.56, 2.47, 1.76, 7.91, repro,
1996-05-07,1.72, 1.48, 1.11, 2.52, 1.78, 8.06, repro,
1996-05-08,0.98, 0.38, 3.11, 2.66, 1.90, 8.47, repro,
1996-05-09,1.11, -0.24, 2.31, 2.47, 1.76, 7.85, repro,
1996-05-10,1.89, 1.64, -1.25, 2.62, 1.90, 8.46, repro,
1996-05-11,3.55, 0.19, -1.23, 3.38, 2.60, 11.64, repro,
1996-05-12,3.67, -0.02, -4.66, 2.63, 1.91, 8.47, repro,
1996-05-13,1.96, 0.57, 8.16, 2.56, 1.84, 8.30, repro,
1996-05-14,-0.19, -0.07, 9.98, 2.48, 1.77, 7.97, repro,
1996-05-15,2.61, 0.04, 6.25, 2.47, 1.78, 7.98, repro,
1996-05-16,2.31, -0.42, 3.17, 2.83, 2.26, 9.91, repro,
1996-05-17,5.47, -1.65, 9.84, 2.72, 1.96, 8.86, repro,
1996-05-18,2.21, -0.66, 10.28, 2.56, 1.91, 8.61, repro,
1996-05-19,1.55, -1.18, 8.43, 2.43, 1.76, 7.83, repro,
1996-05-20,1.93, -0.67, 3.00, 2.45, 1.79, 8.09, repro,
1996-05-21,0.27, 0.26, 10.82, 3.56, 2.62, 11.99, repro,
1996-05-22,2.19, -0.62, 4.68, 2.58, 1.85, 8.41, repro,
1996-05-23,3.71, -0.43, 3.85, 2.58, 1.80, 8.21, repro,
1996-05-24,1.59, 0.58, 2.85, 2.60, 1.86, 8.23, repro,
1996-05-25,3.40, -1.11, -8.45, 2.68, 1.91, 8.55, repro,
1996-05-26,2.49, -0.25, 2.59, 2.55, 1.84, 8.29, repro,
1996-05-27,2.27, -0.73, 1.97, 2.55, 1.84, 8.32, repro,
1996-05-28,3.66, -0.18, 4.86, 2.49, 1.79, 8.11, repro,
1996-05-29,4.34, 0.56, 6.10, 2.59, 1.88, 8.55, repro,
1996-05-30,1.93, -0.19, -0.53, 2.48, 1.77, 8.10, repro,
1996-05-31,2.19, -0.28, 1.36, 2.57, 1.81, 8.28, repro,
1996-06-01,0.96, -0.59, -1.00, 2.45, 1.79, 8.09, repro,
1996-06-02,3.10, -0.02, -4.24, 2.46, 1.77, 8.04, repro,
1996-06-03,1.19, -0.42, 2.22, 2.56, 1.83, 8.31, repro,
1996-06-04,2.66, 1.61, 3.91, 2.52, 1.81, 8.41, repro,
1996-06-05,2.40, 1.27, 6.88, 2.57, 1.90, 8.76, repro,
1996-06-06,2.62, -0.01, 1.76, 2.47, 1.79, 8.14, repro,
1996-06-07,0.09, -0.65, 14.23, 2.55, 1.80, 8.34, repro,
1996-06-08,3.16, -0.87, 9.42, 2.55, 1.85, 8.49, repro,
1996-06-09,1.43, 0.11, 7.60, 2.44, 1.77, 8.11, repro,
1996-06-10,3.53, 0.56, 0.65, 2.54, 1.85, 8.55, repro,
1996-06-11,2.36, -0.50, 2.31, 2.54, 1.85, 8.52, repro,
1996-06-12,3.56, -0.25, 9.37, 2.54, 1.85, 8.38, repro,
1996-06-13,1.59, -0.21, 12.74, 2.46, 1.79, 8.13, repro,
1996-06-14,2.78, -0.06, 2.94, 2.47, 1.79, 8.16, repro,
1996-06-15,3.76, 1.22, 1.56, 2.50, 1.84, 8.39, repro,
1996-06-16,3.50, 0.04, 0.77, 2.49, 1.77, 8.15, repro,
1996-06-17,3.73, 0.23, 1.71, 2.71, 2.01, 9.20, repro,
1996-06-18,2.48, -0.05, 1.78, 2.50, 1.79, 8.26, repro,
1996-06-19,3.33, 0.08, 3.51, 2.69, 1.89, 8.93, repro,
1996-06-20,3.05, -0.96, -1.04, 2.49, 1.78, 8.19, repro,
1996-06-21,1.96, -0.13, 0.56, 2.53, 1.79, 8.32, repro,
1996-06-22,2.48, -0.19, 6.48, 2.49, 1.78, 8.15, repro,
1996-06-23,2.51, 0.22, 12.77, 2.48, 1.78, 8.16, repro,
1996-06-24,3.90, -1.83, 1.91, 2.47, 1.76, 8.13, repro,
1996-06-25,3.39, -1.40, 4.93, 2.57, 1.84, 8.37, repro,
1996-06-26,2.44, -0.46, 12.82, 2.56, 1.88, 8.40, repro,
1996-06-27,0.78, -1.18, 10.34, 2.48, 1.78, 8.26, repro,
1996-06-28,2.92, 0.30, 5.42, 2.48, 1.76, 8.08, repro,
1996-06-29,2.55, -0.19, -4.53, 3.73, 3.05, 13.73, repro,
1996-06-30,3.90, -0.52, 5.23, 2.89, 2.12, 9.48, repro,
1996-07-01,3.31, -1.02, 9.38, 2.56, 1.84, 8.45, repro,
1996-07-02,4.07, -2.35, 17.36, 2.51, 1.83, 8.47, repro,
1996-07-03,2.74, 1.69, 5.79, 2.62, 1.85, 8.55, repro,
1996-07-04,2.99, 1.58, 11.35, 2.54, 1.84, 8.48, repro,
1996-07-05,3.97, -0.80, 6.52, 2.49, 1.77, 8.26, repro,
1996-07-06,3.43, -0.08, 6.50, 2.56, 1.85, 8.44, repro,
1996-07-07,4.10, 0.58, 5.32, 2.67, 1.88, 8.68, repro,
1996-07-08,0.52, -1.25, 10.50, 2.58, 1.87, 8.66, repro,
1996-07-09,3.25, -1.63, 8.65, 2.67, 1.88, 8.82, repro,
1996-07-10,2.61, -1.05, 4.89, 2.55, 1.83, 8.40, repro,
1996-07-11,3.29, -1.06, 3.00, 2.49, 1.78, 8.19, repro,
1996-07-12,2.92, -0.65, 7.47, 2.52, 1.82, 8.37, repro,
1996-07-13,2.19, -0.58, 8.28, 2.50, 1.81, 8.26, repro,
1996-07-14,2.39, 0.35, 11.16, 2.46, 1.78, 8.15, repro,
1996-07-15,3.09, -0.13, 17.13, 2.60, 1.79, 8.38, repro,
1996-07-16,1.23, -1.00, 19.90, 2.57, 1.80, 8.34, repro,
1996-07-17,2.01, -1.01, 9.47, 2.51, 1.84, 8.43, repro,
1996-07-18,2.00, -0.05, 12.87, 2.44, 1.77, 8.09, repro,
1996-07-19,0.73, 0.03, 13.25, 2.45, 1.77, 8.10, repro,
1996-07-20,1.60, 0.16, 10.52, 2.46, 1.78, 8.13, repro,
1996-07-21,2.16, 0.29, 10.66, 2.63, 1.85, 8.49, repro,
1996-07-22,3.91, -0.56, 2.46, 2.47, 1.78, 8.19, repro,
1996-07-23,2.16, 0.12, 6.90, 2.44, 1.76, 8.11, repro,
1996-07-24,1.14, -0.56, 14.53, 2.54, 1.80, 8.38, repro,
1996-07-25,1.09, 1.60, 8.31, 3.80, 2.48, 11.40, repro,
1996-07-26,1.46, -1.02, 5.02, 2.62, 1.91, 8.68, repro,
1996-07-27,1.19, -0.06, 16.03, 2.52, 1.83, 8.34, repro,
1996-07-28,1.36, -0.34, 12.38, 2.45, 1.76, 8.09, repro,
1996-07-29,0.55, 0.70, 13.52, 2.45, 1.76, 8.13, repro,
1996-07-30,1.05, 1.61, 11.09, 2.45, 1.79, 8.23, repro,
1996-07-31,1.68, -0.98, 9.93, 2.49, 1.81, 8.33, repro,
1996-08-01,6.20, -0.14, 8.04, 2.53, 1.82, 8.37, repro,
1996-08-02,2.16, 0.35, 5.70, 2.55, 1.81, 8.23, repro,
1996-08-03,3.36, 0.64, 11.82, 2.47, 1.77, 8.02, repro,
1996-08-04,0.95, -1.21, 24.56, 2.56, 1.86, 8.30, repro,
1996-08-05,3.33, -0.61, 8.18, 2.53, 1.84, 8.38, repro,
1996-08-06,2.54, -0.69, 4.75, 2.88, 2.08, 9.76, repro,
1996-08-07,2.28, -0.24, 8.95, 2.53, 1.84, 8.29, repro,
1996-08-08,2.84, 0.91, 4.62, 2.66, 1.93, 8.87, repro,
1996-08-09,3.79, 0.48, 6.96, 2.57, 1.86, 8.39, repro,
1996-08-10,3.47, -0.03, 10.91, 2.54, 1.86, 8.40, repro,
1996-08-11,-0.62, 1.45, 0.57, 2.69, 1.90, 8.62, repro,
1996-08-12,1.50, 0.99, 6.84, 2.48, 1.78, 8.18, repro,
1996-08-13,3.31, 1.04, 11.40, 2.55, 1.85, 8.60, repro,
1996-08-14,2.89, 0.72, 8.67, 2.64, 1.84, 8.50, repro,
1996-08-15,3.67, 0.00, 2.11, 2.56, 1.79, 8.44, repro,
1996-08-16,1.94, 2.27, 3.77, 2.51, 1.78, 8.31, repro,
1996-08-17,0.89, -0.96, 17.91, 2.64, 1.90, 8.98, repro,
1996-08-18,0.86, -0.65, 8.64, 2.65, 1.82, 8.58, repro,
1996-08-19,-0.66, 0.04, 17.85, 2.78, 1.86, 8.65, repro,
1996-08-20,2.45, 0.02, 14.75, 2.78, 1.94, 9.00, repro,
1996-08-21,0.84, -1.05, 9.87, 2.74, 1.90, 8.72, repro,
1996-08-22,2.40, -0.33, 8.70, 2.54, 1.79, 8.18, repro,
1996-08-23,1.89, -0.33, 13.57, 2.69, 1.85, 8.46, repro,
1996-08-24,1.53, -0.43, 7.09, 2.72, 1.85, 8.67, repro,
1996-08-25,2.22, 0.92, 13.46, 2.52, 1.79, 8.18, repro,
1996-08-26,2.68, 0.74, 17.77, 2.62, 1.87, 8.54, repro,
1996-08-27,1.72, -0.48, 11.12, 2.73, 2.01, 9.02, repro,
1996-08-28,1.79, 0.46, -1.84, 2.61, 1.85, 8.41, repro,
1996-08-29,2.09, -0.73, 5.44, 2.74, 1.95, 8.91, repro,
1996-08-30,2.06, 2.83, 16.28, 2.82, 2.00, 8.95, repro,
1996-08-31,0.49, 0.98, 15.68, 2.45, 1.78, 7.97, repro,
1996-09-01,2.51, -1.07, 5.69, 2.74, 1.93, 8.84, repro,
1996-09-02,1.93, -1.21, 3.37, 2.64, 1.87, 8.54, repro,
1996-09-03,-0.00, 1.11, 10.49, 2.74, 1.91, 8.80, repro,
1996-09-04,3.31, -0.34, 8.52, 2.95, 2.06, 9.42, repro,
1996-09-05,3.45, 0.44, 13.20, 2.58, 1.84, 8.39, repro,
1996-09-06,1.78, 0.24, 4.30, 2.95, 2.07, 9.39, repro,
1996-09-07,2.03, -0.58, 7.06, 2.81, 1.99, 9.27, repro,
1996-09-08,1.76, -0.11, 2.24, 2.63, 1.92, 8.67, repro,
1996-09-09,2.71, 1.26, 9.38, 2.92, 2.12, 9.49, repro,
1996-09-10,2.78, -0.39, 8.71, 2.80, 1.99, 9.08, repro,
1996-09-11,1.95, -0.05, 7.03, 2.76, 2.06, 9.30, repro,
1996-09-12,1.70, -0.05, 18.22, 3.52, 2.60, 11.76, repro,
1996-09-13,1.64, -1.04, 14.27, 2.56, 1.90, 8.46, repro,
1996-09-14,-2.69, -0.49, 19.71, 2.61, 1.86, 8.41, repro,
1996-09-15,1.09, 0.01, 9.34, 2.71, 1.86, 8.55, repro,
1996-09-16,3.05, -1.98, 7.54, 2.58, 1.92, 8.57, repro,
1996-09-17,2.53, 1.46, 5.93, 2.55, 1.81, 8.26, repro,
1996-09-18,0.69, 1.37, 1.76, 2.60, 1.91, 8.48, repro,
1996-09-19,2.24, -0.90, -0.99, 2.60, 1.88, 8.55, repro,
1996-09-20,0.57, 1.54, 4.30, 2.65, 1.96, 8.86, repro,
1996-09-21,2.35, -0.08, 7.31, 2.68, 1.91, 8.81, repro,
1996-09-22,3.77, 2.01, 7.05, 2.56, 1.87, 8.33, repro,
1996-09-23,1.52, 0.53, 4.15, 2.55, 1.91, 8.65, repro,
1996-09-24,1.51, 0.73, 1.93, 2.74, 2.01, 8.65, repro,
1996-09-25,2.44, -0.17, 6.04, 2.43, 1.77, 7.84, repro,
1996-09-26,2.44, 0.41, 8.78, 2.47, 1.79, 8.01, repro,
1996-09-27,1.39, -1.16, 8.32, 2.51, 1.87, 8.40, repro,
1996-09-28,2.83, 0.21, 8.14, 2.54, 1.84, 8.21, repro,
1996-09-29,2.40, -0.59, 4.18, 2.46, 1.78, 7.96, repro,
1996-09-30,1.82, 0.13, 9.23, 2.52, 1.85, 8.20, repro,
1996-10-01,2.04, 0.64, 14.62, 2.57, 1.88, 8.36, repro,
1996-10-02,3.50, 0.67, 15.00, 2.48, 1.78, 7.98, repro,
1996-10-03,3.33, 0.36, 14.71, 2.54, 1.84, 8.38, repro,
1996-10-04,3.06, 0.52, 10.90, 2.54, 1.85, 8.33, repro,
1996-10-05,1.59, 0.82, 8.15, 2.56, 1.91, 8.48, repro,
1996-10-06,3.25, 0.16, 4.30, 2.41, 1.76, 7.85, repro,
1996-10-07,2.18, -0.33, 6.96, 2.42, 1.75, 7.89, repro,
1996-10-08,4.23, 0.43, 5.87, 2.52, 1.78, 8.11, repro,
1996-10-09,1.91, 0.54, 8.95, 2.49, 1.80, 8.12, repro,
1996-10-10,0.86, -0.29, 13.03, 2.42, 1.77, 7.89, repro,
1996-10-11,3.26, -0.45, 7.78, 2.45, 1.81, 7.98, repro,
1996-10-12,0.77, 1.26, 11.05, 2.37, 1.74, 7.70, repro,
1996-10-13,0.97, 0.11, 9.29, 2.54, 1.85, 8.34, repro,
1996-10-14,3.60, 0.87, 16.65, 2.47, 1.80, 8.11, repro,
1996-10-15,2.61, 1.03, 8.80, 2.45, 1.78, 8.04, repro,
1996-10-16,3.35, 0.31, 2.78, 2.84, 2.20, 9.50, repro,
1996-10-17,3.05, 0.53, 3.18, 2.44, 1.78, 8.10, repro,
1996-10-18,3.19, -1.71, 4.00, 3.07, 2.31, 10.36, repro,
1996-10-19,2.60, 0.69, 12.17, 2.41, 1.74, 7.82, repro,
1996-10-20,2.75, 0.19, 5.30, 2.39, 1.74, 7.82, repro,
1996-10-21,1.24, 1.95, 8.22, 2.37, 1.75, 7.86, repro,
1996-10-22,1.89, 0.38, 7.32, 2.45, 1.79, 8.05, repro,
1996-10-23,1.39, 0.21, 12.21, 2.37, 1.73, 7.78, repro,
1996-10-24,3.00, -0.89, 9.27, 2.34, 1.72, 7.72, repro,
1996-10-25,2.83, 0.71, 17.88, 2.45, 1.83, 8.21, repro,
1996-10-26,1.32, 1.18, 3.02, 2.43, 1.79, 8.14, repro,
1996-10-27,-0.45, 1.60, 2.55, 2.38, 1.73, 7.78, repro,
1996-10-28,1.97, 0.27, 2.87, 2.48, 1.84, 8.13, repro,
1996-10-29,3.05, 0.70, 4.13, 2.38, 1.72, 7.76, repro,
1996-10-30,2.94, 0.94, 6.25, 2.44, 1.74, 7.84, repro,
1996-10-31,3.54, 0.32, 7.29, 2.51, 1.80, 8.11, repro,
1996-11-01,2.67, 0.68, 3.58, 2.45, 1.78, 7.96, repro,
1996-11-02,1.30, -0.81, 1.89, 2.61, 1.84, 8.31, repro,
1996-11-03,1.57, -0.72, 8.08, 2.67, 1.89, 8.39, repro,
1996-11-04,3.10, 0.09, 12.51, 2.71, 1.85, 8.47, repro,
1996-11-05,0.61, 0.29, 2.54, 2.80, 2.09, 9.33, repro,
1996-11-06,3.35, -2.59, 2.90, 2.70, 1.91, 8.62, repro,
1996-11-07,-0.10, 0.55, 4.14, 2.74, 1.91, 8.59, repro,
1996-11-08,1.69, -0.94, -3.17, 2.60, 1.91, 8.81, repro,
1996-11-09,5.19, 0.42, 1.02, 2.86, 2.00, 9.06, repro,
1996-11-10,6.23, -0.43, 2.98, 2.76, 1.97, 8.94, repro,
1996-11-11,3.69, 0.03, 4.15, 2.79, 1.94, 8.72, repro,
1996-11-12,4.13, 1.89, -1.80, 2.52, 1.81, 8.26, repro,
1996-11-13,0.45, 1.14, -1.40, 2.51, 1.81, 8.02, repro,
1996-11-14,1.66, 0.66, -0.07, 2.46, 1.77, 7.96, repro,
1996-11-15,3.33, 0.06, 5.42, 2.82, 2.05, 8.94, repro,
1996-11-16,3.00, 1.48, 11.49, 2.91, 2.12, 9.35, repro,
1996-11-17,1.13, -0.06, 12.65, 2.96, 2.04, 9.23, repro,
1996-11-18,2.71, -0.95, 4.56, 3.01, 2.12, 9.34, repro,
1996-11-19,2.09, -1.21, -0.28, 2.75, 1.98, 8.94, repro,
1996-11-20,3.09, -0.89, 4.78, 2.74, 1.94, 8.48, repro,
1996-11-21,3.80, 0.53, 7.03, 2.73, 1.93, 8.52, repro,
1996-11-22,3.60, -0.17, 7.49, 2.85, 2.02, 9.02, repro,
1996-11-23,3.32, 1.14, 1.77, 2.76, 1.99, 8.88, repro,
1996-11-24,0.85, 0.67, 4.44, 2.77, 2.04, 8.89, repro,
1996-11-25,0.90, -1.21, -2.64, 2.68, 1.92, 8.34, repro,
1996-11-26,0.67, -0.72, -3.57, 2.75, 1.99, 8.64, repro,
1996-11-27,2.64, -0.79, 2.44, 2.85, 1.91, 8.66, repro,
1996-11-28,2.12, -0.01, 9.16, 2.79, 2.10, 9.41, repro,
1996-11-29,0.59, -0.59, 8.52, 3.12, 2.24, 10.04, repro,
1996-11-30,0.37, 1.02, 18.84, 2.77, 1.90, 8.57, repro,
1996-12-01,4.89, -1.40, -0.37, 2.77, 2.03, 8.69, repro,
1996-12-02,2.87, 1.51, 2.95, 2.87, 1.91, 8.77, repro,
1996-12-03,1.04, -0.67, 5.13, 2.65, 1.88, 8.38, repro,
1996-12-04,2.00, 1.22, 9.91, 2.91, 2.02, 9.09, repro,
1996-12-05,-0.61, -2.06, 12.55, 2.86, 1.92, 8.74, repro,
1996-12-06,0.82, -0.07, 14.16, 3.07, 2.09, 9.58, repro,
1996-12-07,3.14, 1.16, 15.01, 2.87, 1.95, 8.76, repro,
1996-12-08,3.18, -0.05, 18.77, 2.89, 2.00, 8.88, repro,
1996-12-09,3.89, 1.19, 8.50, 3.00, 1.93, 8.89, repro,
1996-12-10,-0.28, 2.17, 13.78, 3.08, 2.06, 9.38, repro,
1996-12-11,0.34, -0.14, 9.39, 2.69, 1.95, 8.63, repro,
1996-12-12,1.71, 1.23, 3.70, 2.72, 1.93, 8.56, repro,
1996-12-13,1.44, -1.16, 2.46, 2.63, 1.83, 8.19, repro,
1996-12-14,3.07, 1.08, -15.09, 2.63, 1.82, 8.23, repro,
1996-12-15,3.22, 0.94, -2.33, 2.63, 1.93, 8.56, repro,
1996-12-16,2.04, 1.76, -1.51, 2.48, 1.78, 7.97, repro,
1996-12-17,1.61, 2.60, -5.22, 2.98, 1.95, 9.17, repro,
1996-12-18,1.87, 0.19, -4.11, 2.48, 1.76, 7.99, repro,
1996-12-19,2.48, 1.03, 0.63, 2.65, 1.85, 8.41, repro,
1996-12-20,2.22, 1.04, -4.57, 2.68, 1.83, 8.40, repro,
1996-12-21,0.35, 0.98, 4.82, 2.70, 1.87, 8.38, repro,
1996-12-22,2.40, 2.88, 5.89, 2.70, 1.89, 8.42, repro,
1996-12-23,0.67, 2.15, -3.15, 2.71, 1.90, 8.48, repro,
1996-12-24,2.23, 2.26, -9.24, 2.68, 1.82, 8.30, repro,
1996-12-25,2.06, -0.82, -5.00, 2.69, 1.87, 8.45, repro,
1996-12-26,-0.64, -0.84, 6.04, 2.70, 1.86, 8.38, repro,
1996-12-27,-2.34, -0.98, 2.69, 2.66, 1.83, 8.32, repro,
1996-12-28,-1.45, 0.36, -20.16, 2.66, 1.83, 8.31, repro,
1996-12-29,1.11, -0.66, -29.09, 2.64, 1.84, 8.32, repro,
1996-12-30,1.44, -0.77, -16.54, 2.92, 2.01, 9.13, repro,
1996-12-31,0.97, 1.13, -1.02, 2.77, 1.94, 8.93, repro,
1997-01-01,0.80, -0.87, 1.97, 2.56, 1.89, 8.53, repro,
1997-01-02,0.47, 1.04, 6.44, 2.67, 1.98, 8.96, repro,
1997-01-03,3.01, 1.43, -7.71, 2.72, 2.00, 9.02, repro,
1997-01-04,1.71, 2.07, -5.76, 2.68, 1.92, 8.79, repro,
1997-01-05,-0.16, 2.09, -8.68, 3.23, 2.28, 10.60, repro,
1997-01-06,-0.28, 0.08, -5.96, 2.92, 2.08, 9.52, repro,
1997-01-07,4.26, -1.32, -20.11, 2.71, 1.99, 8.97, repro,
1997-01-08,1.02, 1.29, -5.02, 2.77, 2.05, 9.16, repro,
1997-01-09,1.89, -1.16, -2.23, 2.95, 2.21, 9.97, repro,
1997-01-10,0.66, 1.31, -4.45, 2.72, 1.95, 8.92, repro,
1997-01-11,0.83, 1.47, -1.77, 2.95, 1.99, 9.09, repro,
1997-01-12,5.01, 2.15, -1.92, 2.70, 1.95, 8.82, repro,
1997-01-13,2.50, 0.79, -3.92, 2.72, 2.02, 9.01, repro,
1997-01-14,2.50, 0.81, -5.00, 2.99, 2.27, 10.39, repro,
1997-01-15,2.56, 0.02, -7.52, 2.69, 2.01, 9.11, repro,
1997-01-16,2.67, 0.98, -4.02, 2.73, 2.05, 9.17, repro,
1997-01-17,1.56, -0.22, -5.51, 2.93, 2.11, 9.65, repro,
1997-01-18,1.15, 1.63, -3.68, 2.79, 2.10, 9.45, repro,
1997-01-19,1.77, 1.28, -7.87, 2.70, 2.09, 9.24, repro,
1997-01-20,2.68, 1.40, -1.03, 2.61, 1.88, 8.53, repro,
1997-01-21,1.39, 0.78, -1.93, 2.73, 1.95, 8.87, repro,
1997-01-22,3.10, 0.62, -0.28, 3.00, 2.13, 9.83, repro,
1997-01-23,3.65, -1.86, -6.18, 2.71, 1.99, 9.00, repro,
1997-01-24,6.67, 1.40, -3.72, 2.81, 2.12, 9.51, repro,
1997-01-25,3.43, 1.75, 1.00, 2.97, 2.12, 9.81, repro,
1997-01-26,4.92, 2.40, -4.71, 2.65, 1.99, 8.81, repro,
1997-01-27,2.70, 1.90, -10.63, 3.15, 2.16, 9.78, repro,
1997-01-28,2.13, 0.86, -9.53, 2.86, 2.14, 9.65, repro,
1997-01-29,3.20, 1.47, -16.30, 2.64, 1.90, 8.67, repro,
1997-01-30,2.81, 1.46, -13.65, 2.73, 1.95, 8.76, repro,
1997-01-31,2.38, 2.18, 1.03, 2.59, 1.87, 8.48, repro,
1997-02-01,4.93, 1.54, 2.28, 2.52, 1.81, 8.07, repro,
1997-02-24,2.65, 0.95, -11.37, 2.82, 2.05, 9.21, repro,
1997-02-25,2.87, 1.16, -1.34, 2.69, 1.91, 8.64, repro,
1997-02-26,3.07, 1.69, 1.91, 2.81, 2.01, 9.01, repro,
1997-02-27,2.35, 1.35, 4.32, 3.12, 2.13, 9.68, repro,
1997-02-28,2.43, 1.89, -3.79, 3.21, 2.27, 10.37, repro,
1997-03-01,1.63, 0.15, 0.53, 2.78, 1.95, 9.05, repro,
1997-03-02,2.53, -1.19, 1.84, 2.67, 1.90, 8.68, repro,
1997-03-03,1.94, 2.27, 3.18, 2.72, 1.97, 8.94, repro,
1997-03-04,4.91, 1.36, -4.86, 2.90, 2.05, 9.47, repro,
1997-03-05,0.73, 1.60, -7.66, 2.91, 2.09, 9.28, repro,
1997-03-06,0.82, 2.29, 2.81, 3.14, 2.24, 10.10, repro,
1997-03-07,2.57, -0.85, -7.83, 2.53, 1.87, 8.35, repro,
1997-03-08,1.73, 1.72, -4.07, 2.65, 1.92, 8.62, repro,
1997-03-09,-1.52, 0.73, -6.78, 2.77, 1.95, 8.90, repro,
1997-03-10,3.47, -0.01, -11.80, 2.70, 2.01, 8.84, repro,
1997-03-11,1.68, 2.87, -7.10, 3.12, 2.19, 9.86, repro,
1997-03-12,3.57, 1.61, -12.71, 3.00, 2.14, 9.89, repro,
1997-03-13,2.11, 1.54, -13.68, 2.71, 2.03, 8.98, repro,
1997-03-14,3.09, 2.17, -11.00, 2.99, 2.15, 9.96, repro,
1997-03-15,1.51, 2.62, 1.90, 2.59, 1.83, 8.43, repro,
1997-03-16,0.27, 0.39, -0.89, 2.48, 1.76, 7.94, repro,
1997-03-17,2.36, 2.27, 0.37, 2.45, 1.77, 8.07, repro,
1997-03-18,1.21, 1.41, -7.48, 2.43, 1.74, 7.94, repro,
1997-03-19,1.15, 2.48, -11.82, 2.45, 1.76, 7.95, repro,
1997-03-20,3.45, 2.65, -13.96, 2.69, 1.93, 8.67, repro,
1997-03-21,2.40, 1.70, -11.09, 2.49, 1.81, 8.17, repro,
1997-03-22,2.97, 1.90, -14.58, 2.47, 1.78, 8.00, repro,